Time,TemperatureF,DewpointF,PressureIn,WindDirection,WindDirectionDegrees,WindSpeedMPH,WindSpeedGustMPH,Humidity,HourlyPrecipIn,Conditions,Clouds,dailyrainin,SolarRadiationWatts/m^2,SoftwareType,DateUTC
2013-05-04 00:02:00,41.5,29.5,30.23,NNE,28,1.0,7.0,62,0.00,,,0.00,0.0,meteohub,2013-05-04 05:02:00,
2013-05-04 00:07:00,41.2,30.7,30.24,NNE,22,3.0,7.0,66,0.00,,,0.00,0.0,meteohub,2013-05-04 05:07:00,
2013-05-04 00:12:00,40.6,30.9,30.24,East,81,3.0,7.0,68,0.00,,,0.00,0.0,meteohub,2013-05-04 05:12:00,
2013-05-04 00:17:00,40.5,31.5,30.24,North,0,1.0,7.0,70,0.00,,,0.00,0.0,meteohub,2013-05-04 05:17:00,
2013-05-04 00:22:00,39.9,31.6,30.24,NNW,332,5.0,6.0,72,0.00,,,0.00,0.0,meteohub,2013-05-04 05:22:00,
2013-05-04 00:27:00,39.7,32.2,30.24,NNE,23,1.0,6.0,74,0.00,,,0.00,0.0,meteohub,2013-05-04 05:27:00,
2013-05-04 00:32:00,39.6,32.4,30.24,NNW,339,2.0,6.0,75,0.00,,,0.00,0.0,meteohub,2013-05-04 05:32:00,
2013-05-04 00:37:00,39.4,32.5,30.24,NNW,344,1.0,6.0,76,0.00,,,0.00,0.0,meteohub,2013-05-04 05:37:00,
2013-05-04 00:42:00,39.4,32.7,30.24,NE,42,3.0,6.0,77,0.00,,,0.00,0.0,meteohub,2013-05-04 05:42:00,
2013-05-04 00:47:00,39.2,32.9,30.24,NE,52,3.0,6.0,78,0.00,,,0.00,0.0,meteohub,2013-05-04 05:47:00,
2013-05-04 00:52:00,39.0,33.1,30.24,NNW,347,2.0,7.0,79,0.00,,,0.00,0.0,meteohub,2013-05-04 05:52:00,
2013-05-04 00:57:00,38.8,33.3,30.24,NNE,19,0.0,7.0,80,0.00,,,0.00,0.0,meteohub,2013-05-04 05:57:00,
2013-05-04 01:02:00,38.7,33.3,30.24,North,5,0.0,7.0,81,0.00,,,0.00,0.0,meteohub,2013-05-04 06:02:00,
2013-05-04 01:07:00,38.5,33.8,30.24,NE,46,2.0,7.0,83,0.00,,,0.00,0.0,meteohub,2013-05-04 06:07:00,
2013-05-04 01:12:00,38.3,34.0,30.24,NE,38,2.0,7.0,84,0.00,,,0.00,0.0,meteohub,2013-05-04 06:12:00,
2013-05-04 01:17:00,38.1,33.8,30.24,NNE,25,3.0,7.0,84,0.00,,,0.00,0.0,meteohub,2013-05-04 06:17:00,
2013-05-04 01:22:00,37.9,33.8,30.23,NE,37,2.0,6.0,85,0.00,,,0.00,0.0,meteohub,2013-05-04 06:22:00,
2013-05-04 01:27:00,37.9,34.2,30.23,NNE,33,1.0,6.0,86,0.00,,,0.00,0.0,meteohub,2013-05-04 06:27:00,
2013-05-04 01:32:00,37.8,34.0,30.23,North,5,1.0,6.0,86,0.00,,,0.00,0.0,meteohub,2013-05-04 06:32:00,
2013-05-04 01:37:00,37.8,34.0,30.23,North,10,4.0,7.0,86,0.00,,,0.00,0.0,meteohub,2013-05-04 06:37:00,
2013-05-04 01:42:00,37.8,34.2,30.23,North,9,1.0,7.0,87,0.00,,,0.00,0.0,meteohub,2013-05-04 06:42:00,
2013-05-04 01:47:00,37.8,34.2,30.23,NE,38,2.0,7.0,87,0.00,,,0.00,0.0,meteohub,2013-05-04 06:47:00,
2013-05-04 01:52:00,37.8,34.2,30.22,NNE,22,1.0,7.0,87,0.00,,,0.00,0.0,meteohub,2013-05-04 06:52:00,
2013-05-04 01:57:00,37.8,34.5,30.23,ENE,63,2.0,5.0,88,0.00,,,0.00,0.0,meteohub,2013-05-04 06:57:00,
2013-05-04 02:02:00,37.8,34.2,30.22,NNW,348,1.0,4.0,87,0.00,,,0.00,0.0,meteohub,2013-05-04 07:02:00,
2013-05-04 02:07:00,37.8,34.2,30.22,North,5,2.0,6.0,87,0.00,,,0.00,0.0,meteohub,2013-05-04 07:07:00,
2013-05-04 02:12:00,37.8,34.2,30.22,NE,44,2.0,6.0,87,0.00,,,0.00,0.0,meteohub,2013-05-04 07:12:00,
2013-05-04 02:17:00,37.8,34.2,30.22,NNE,22,5.0,7.0,87,0.00,,,0.00,0.0,meteohub,2013-05-04 07:17:00,
2013-05-04 02:22:00,37.8,34.2,30.22,North,11,2.0,7.0,87,0.00,,,0.00,0.0,meteohub,2013-05-04 07:22:00,
2013-05-04 02:27:00,37.8,34.2,30.23,NNE,27,2.0,7.0,87,0.00,,,0.00,0.0,meteohub,2013-05-04 07:27:00,
2013-05-04 02:32:00,37.8,34.2,30.22,NE,42,4.0,7.0,87,0.00,,,0.00,0.0,meteohub,2013-05-04 07:32:00,
2013-05-04 02:37:00,37.6,34.3,30.22,North,5,1.0,7.0,88,0.00,,,0.00,0.0,meteohub,2013-05-04 07:37:00,
2013-05-04 02:42:00,37.6,34.3,30.22,North,0,4.0,5.0,88,0.00,,,0.00,0.0,meteohub,2013-05-04 07:42:00,
2013-05-04 02:47:00,37.6,34.3,30.22,NNW,343,0.0,7.0,88,0.00,,,0.00,0.0,meteohub,2013-05-04 07:47:00,
2013-05-04 02:52:00,37.6,34.3,30.22,NNE,20,1.0,9.0,88,0.00,,,0.00,0.0,meteohub,2013-05-04 07:52:00,
2013-05-04 02:57:00,37.4,34.2,30.22,North,5,0.0,9.0,88,0.00,,,0.00,0.0,meteohub,2013-05-04 07:57:00,
2013-05-04 03:02:00,37.4,34.5,30.21,NNE,18,1.0,9.0,89,0.00,,,0.00,0.0,meteohub,2013-05-04 08:02:00,
2013-05-04 03:07:00,37.4,34.5,30.21,NNW,329,2.0,7.0,89,0.00,,,0.00,0.0,meteohub,2013-05-04 08:07:00,
2013-05-04 03:12:00,37.4,34.5,30.21,NNE,15,1.0,5.0,89,0.00,,,0.00,0.0,meteohub,2013-05-04 08:12:00,
2013-05-04 03:17:00,37.4,34.5,30.21,WNW,302,2.0,5.0,89,0.00,,,0.00,0.0,meteohub,2013-05-04 08:17:00,
2013-05-04 03:22:00,37.4,34.5,30.20,North,0,3.0,6.0,89,0.00,,,0.00,0.0,meteohub,2013-05-04 08:22:00,
2013-05-04 03:27:00,37.4,34.2,30.20,NNW,333,3.0,7.0,88,0.00,,,0.00,0.0,meteohub,2013-05-04 08:27:00,
2013-05-04 03:32:00,37.4,34.2,30.20,ENE,63,3.0,7.0,88,0.00,,,0.00,0.0,meteohub,2013-05-04 08:32:00,
2013-05-04 03:37:00,37.6,34.3,30.20,NE,44,4.0,7.0,88,0.00,,,0.00,0.0,meteohub,2013-05-04 08:37:00,
2013-05-04 03:42:00,37.6,34.0,30.20,North,5,4.0,7.0,87,0.00,,,0.00,0.0,meteohub,2013-05-04 08:42:00,
2013-05-04 03:47:00,37.6,34.0,30.20,ENE,59,5.0,7.0,87,0.00,,,0.00,0.0,meteohub,2013-05-04 08:47:00,
2013-05-04 03:52:00,37.6,33.8,30.20,NNE,20,6.0,7.0,86,0.00,,,0.00,0.0,meteohub,2013-05-04 08:52:00,
2013-05-04 03:57:00,37.6,33.8,30.21,NNE,30,3.0,8.0,86,0.00,,,0.00,0.0,meteohub,2013-05-04 08:57:00,
2013-05-04 04:02:00,37.6,33.4,30.21,North,355,3.0,8.0,85,0.00,,,0.00,0.0,meteohub,2013-05-04 09:02:00,
2013-05-04 04:07:00,37.6,33.4,30.21,NNE,16,1.0,10.0,85,0.00,,,0.00,0.0,meteohub,2013-05-04 09:07:00,
2013-05-04 04:12:00,37.4,33.3,30.21,NNE,22,5.0,10.0,85,0.00,,,0.00,0.0,meteohub,2013-05-04 09:12:00,
2013-05-04 04:17:00,37.2,33.4,30.21,NE,42,2.0,10.0,86,0.00,,,0.00,0.0,meteohub,2013-05-04 09:17:00,
2013-05-04 04:22:00,37.2,33.4,30.21,North,350,2.0,9.0,86,0.00,,,0.00,0.0,meteohub,2013-05-04 09:22:00,
2013-05-04 04:27:00,37.2,33.4,30.21,NNE,28,1.0,9.0,86,0.00,,,0.00,0.0,meteohub,2013-05-04 09:27:00,
2013-05-04 04:32:00,37.2,33.4,30.21,NNE,27,1.0,6.0,86,0.00,,,0.00,0.0,meteohub,2013-05-04 09:32:00,
2013-05-04 04:37:00,37.2,33.8,30.21,North,0,1.0,6.0,87,0.00,,,0.00,0.0,meteohub,2013-05-04 09:37:00,
2013-05-04 04:42:00,37.2,33.4,30.21,NNE,19,4.0,6.0,86,0.00,,,0.00,0.0,meteohub,2013-05-04 09:42:00,
2013-05-04 04:47:00,37.2,33.4,30.20,NE,48,2.0,8.0,86,0.00,,,0.00,0.0,meteohub,2013-05-04 09:47:00,
2013-05-04 04:52:00,37.2,33.4,30.20,NNE,14,2.0,8.0,86,0.00,,,0.00,0.0,meteohub,2013-05-04 09:52:00,
2013-05-04 04:57:00,37.2,33.4,30.20,NNE,17,6.0,8.0,86,0.00,,,0.00,0.0,meteohub,2013-05-04 09:57:00,
2013-05-04 05:01:00,37.2,33.4,30.20,North,355,4.0,12.0,86,0.00,,,0.00,0.0,meteohub,2013-05-04 10:01:00,
2013-05-04 05:06:00,37.2,33.4,30.20,NE,44,1.0,12.0,86,0.00,,,0.00,0.0,meteohub,2013-05-04 10:06:00,
2013-05-04 05:12:00,37.0,33.3,30.21,NNE,28,1.0,12.0,86,0.00,,,0.00,0.0,meteohub,2013-05-04 10:12:00,
2013-05-04 05:17:00,37.0,33.6,30.21,NNE,17,2.0,7.0,87,0.00,,,0.00,0.0,meteohub,2013-05-04 10:17:00,
2013-05-04 05:22:00,37.0,33.3,30.21,NNW,340,2.0,7.0,86,0.00,,,0.00,0.0,meteohub,2013-05-04 10:22:00,
2013-05-04 05:27:00,37.0,33.3,30.21,NNE,17,0.0,6.0,86,0.00,,,0.00,0.0,meteohub,2013-05-04 10:27:00,
2013-05-04 05:32:00,36.9,33.4,30.21,NNE,17,3.0,6.0,87,0.00,,,0.00,0.0,meteohub,2013-05-04 10:32:00,
2013-05-04 05:37:00,36.9,33.4,30.21,North,355,4.0,6.0,87,0.00,,,0.00,0.0,meteohub,2013-05-04 10:37:00,
2013-05-04 05:42:00,36.9,33.4,30.21,NE,36,2.0,5.0,87,0.00,,,0.00,0.0,meteohub,2013-05-04 10:42:00,
2013-05-04 05:47:00,36.7,33.4,30.21,NE,36,1.0,5.0,88,0.00,,,0.00,0.0,meteohub,2013-05-04 10:47:00,
2013-05-04 05:52:00,36.7,33.4,30.21,NNW,345,0.0,5.0,88,0.00,,,0.00,0.0,meteohub,2013-05-04 10:52:00,
2013-05-04 05:57:00,36.7,33.8,30.21,North,5,0.0,5.0,89,0.00,,,0.00,0.0,meteohub,2013-05-04 10:57:00,
2013-05-04 06:02:00,36.7,33.8,30.21,NNE,16,1.0,8.0,89,0.00,,,0.00,0.0,meteohub,2013-05-04 11:02:00,
2013-05-04 06:07:00,36.7,33.8,30.21,NE,39,0.0,8.0,89,0.00,,,0.00,0.0,meteohub,2013-05-04 11:07:00,
2013-05-04 06:12:00,36.5,33.8,30.21,NNE,15,2.0,5.0,90,0.00,,,0.00,0.0,meteohub,2013-05-04 11:12:00,
2013-05-04 06:17:00,36.3,33.6,30.21,North,0,2.0,4.0,90,0.00,,,0.00,0.0,meteohub,2013-05-04 11:17:00,
2013-05-04 06:22:00,36.3,34.0,30.20,North,5,3.0,7.0,91,0.00,,,0.00,0.0,meteohub,2013-05-04 11:22:00,
2013-05-04 06:27:00,36.3,34.0,30.21,NNE,22,4.0,7.0,91,0.00,,,0.00,0.0,meteohub,2013-05-04 11:27:00,
2013-05-04 06:32:00,36.1,33.8,30.21,NE,36,2.0,7.0,91,0.01,,,0.01,0.0,meteohub,2013-05-04 11:32:00,
2013-05-04 06:37:00,36.1,34.0,30.21,NNE,26,5.0,7.0,92,0.01,,,0.01,0.0,meteohub,2013-05-04 11:37:00,
2013-05-04 06:42:00,36.1,34.0,30.21,NNE,13,1.0,7.0,92,0.01,,,0.01,7.0,meteohub,2013-05-04 11:42:00,
2013-05-04 06:47:00,36.1,34.0,30.21,NNE,22,0.0,7.0,92,0.01,,,0.01,7.0,meteohub,2013-05-04 11:47:00,
2013-05-04 06:52:00,36.1,34.0,30.21,NNW,348,2.0,10.0,92,0.01,,,0.01,7.0,meteohub,2013-05-04 11:52:00,
2013-05-04 06:57:00,36.0,33.8,30.22,ESE,105,1.0,10.0,92,0.01,,,0.01,7.0,meteohub,2013-05-04 11:57:00,
2013-05-04 07:02:00,36.0,33.8,30.22,NE,38,2.0,10.0,92,0.01,,,0.01,9.0,meteohub,2013-05-04 12:02:00,
2013-05-04 07:07:00,36.0,33.6,30.22,NNE,24,0.0,9.0,91,0.01,,,0.01,11.0,meteohub,2013-05-04 12:07:00,
2013-05-04 07:12:00,36.0,33.8,30.22,NE,42,1.0,9.0,92,0.01,,,0.01,12.0,meteohub,2013-05-04 12:12:00,
2013-05-04 07:17:00,36.1,34.0,30.23,NE,42,3.0,7.0,92,0.01,,,0.01,14.0,meteohub,2013-05-04 12:17:00,
2013-05-04 07:23:00,36.1,34.0,30.23,NNE,30,2.0,5.0,92,0.01,,,0.01,12.0,meteohub,2013-05-04 12:23:00,
2013-05-04 07:28:00,36.1,34.0,30.23,North,351,2.0,4.0,92,0.01,,,0.01,16.0,meteohub,2013-05-04 12:28:00,
2013-05-04 07:33:00,36.1,34.0,30.23,NNE,16,2.0,4.0,92,0.00,,,0.01,28.0,meteohub,2013-05-04 12:33:00,
2013-05-04 07:38:00,36.1,34.0,30.23,North,11,4.0,4.0,92,0.00,,,0.01,32.0,meteohub,2013-05-04 12:38:00,
2013-05-04 07:43:00,36.1,34.0,30.23,North,0,3.0,5.0,92,0.00,,,0.01,37.0,meteohub,2013-05-04 12:43:00,
2013-05-04 07:48:00,36.1,34.0,30.22,NE,50,4.0,8.0,92,0.00,,,0.01,40.0,meteohub,2013-05-04 12:48:00,
2013-05-04 07:53:00,36.1,33.8,30.23,NNE,13,2.0,8.0,91,0.00,,,0.01,40.0,meteohub,2013-05-04 12:53:00,
2013-05-04 07:58:00,36.1,33.8,30.22,NNW,338,3.0,8.0,91,0.00,,,0.01,40.0,meteohub,2013-05-04 12:58:00,
2013-05-04 08:03:00,36.1,33.4,30.22,NNE,32,2.0,7.0,90,0.00,,,0.01,40.0,meteohub,2013-05-04 13:03:00,
2013-05-04 08:04:00,36.3,33.6,30.22,North,349,1.0,7.0,90,0.00,,,0.01,40.0,meteohub,2013-05-04 13:04:00,
2013-05-04 08:09:00,36.3,33.6,30.22,NNE,21,2.0,7.0,90,0.00,,,0.01,40.0,meteohub,2013-05-04 13:09:00,
2013-05-04 08:15:00,36.3,33.6,30.22,NW,323,2.0,7.0,90,0.00,,,0.01,42.0,meteohub,2013-05-04 13:15:00,
2013-05-04 08:20:00,36.3,33.4,30.22,NE,45,5.0,7.0,89,0.00,,,0.01,60.0,meteohub,2013-05-04 13:20:00,
2013-05-04 08:25:00,36.5,33.6,30.22,NNE,22,3.0,11.0,89,0.00,,,0.01,79.0,meteohub,2013-05-04 13:25:00,
2013-05-04 08:30:00,36.7,33.8,30.22,NNW,327,1.0,11.0,89,0.00,,,0.01,77.0,meteohub,2013-05-04 13:30:00,
2013-05-04 08:35:00,36.9,34.0,30.22,North,0,3.0,11.0,89,0.00,,,0.01,63.0,meteohub,2013-05-04 13:35:00,
2013-05-04 08:40:00,36.9,34.0,30.22,NNW,331,1.0,8.0,89,0.00,,,0.01,65.0,meteohub,2013-05-04 13:40:00,
2013-05-04 08:45:00,36.9,34.0,30.22,NW,319,2.0,7.0,89,0.00,,,0.01,69.0,meteohub,2013-05-04 13:45:00,
2013-05-04 08:50:00,36.9,33.6,30.22,NW,317,4.0,8.0,88,0.00,,,0.01,93.0,meteohub,2013-05-04 13:50:00,
2013-05-04 08:55:00,37.0,33.8,30.22,NNW,330,2.0,8.0,88,0.00,,,0.01,100.0,meteohub,2013-05-04 13:55:00,
2013-05-04 09:00:00,37.0,33.8,30.22,NE,42,7.0,7.0,88,0.00,,,0.01,97.0,meteohub,2013-05-04 14:00:00,
2013-05-04 09:05:00,37.2,34.0,30.22,NNW,346,2.0,7.0,88,0.00,,,0.01,81.0,meteohub,2013-05-04 14:05:00,
2013-05-04 09:10:00,37.4,34.2,30.22,NNW,347,2.0,7.0,88,0.00,,,0.01,86.0,meteohub,2013-05-04 14:10:00,
2013-05-04 09:15:00,37.6,34.3,30.22,North,0,1.0,7.0,88,0.00,,,0.01,67.0,meteohub,2013-05-04 14:15:00,
2013-05-04 09:20:00,37.8,34.9,30.22,North,11,2.0,6.0,89,0.00,,,0.01,62.0,meteohub,2013-05-04 14:20:00,
2013-05-04 09:25:00,37.6,34.3,30.22,NNE,27,4.0,7.0,88,0.00,,,0.01,69.0,meteohub,2013-05-04 14:25:00,
2013-05-04 09:30:00,37.6,34.3,30.22,NNE,16,3.0,7.0,88,0.00,,,0.01,51.0,meteohub,2013-05-04 14:30:00,
2013-05-04 09:35:00,37.6,34.3,30.22,NNW,347,0.0,7.0,88,0.00,,,0.01,54.0,meteohub,2013-05-04 14:35:00,
2013-05-04 09:40:00,37.4,34.5,30.22,NNW,342,2.0,8.0,89,0.00,,,0.01,62.0,meteohub,2013-05-04 14:40:00,
2013-05-04 09:45:00,37.2,34.3,30.22,North,5,1.0,8.0,89,0.00,,,0.01,62.0,meteohub,2013-05-04 14:45:00,
2013-05-04 09:50:00,37.4,34.5,30.22,NNW,348,2.0,8.0,89,0.00,,,0.01,69.0,meteohub,2013-05-04 14:50:00,
2013-05-04 09:55:00,37.4,34.5,30.22,NE,34,5.0,9.0,89,0.00,,,0.01,70.0,meteohub,2013-05-04 14:55:00,
2013-05-04 10:00:00,37.2,34.3,30.22,NNE,30,4.0,9.0,89,0.00,,,0.01,107.0,meteohub,2013-05-04 15:00:00,
2013-05-04 10:05:00,37.4,34.2,30.22,NE,37,3.0,9.0,88,0.00,,,0.01,118.0,meteohub,2013-05-04 15:05:00,
2013-05-04 10:10:00,37.6,34.3,30.22,West,271,1.0,9.0,88,0.00,,,0.01,79.0,meteohub,2013-05-04 15:10:00,
2013-05-04 10:15:00,37.6,34.3,30.23,NNE,29,2.0,7.0,88,0.00,,,0.01,90.0,meteohub,2013-05-04 15:15:00,
2013-05-04 10:20:00,37.6,34.7,30.22,NW,309,3.0,6.0,89,0.00,,,0.01,77.0,meteohub,2013-05-04 15:20:00,
2013-05-04 10:25:00,37.4,34.5,30.22,NNE,12,0.0,7.0,89,0.00,,,0.01,65.0,meteohub,2013-05-04 15:25:00,
2013-05-04 10:30:00,37.2,34.3,30.22,North,351,2.0,7.0,89,0.00,,,0.01,79.0,meteohub,2013-05-04 15:30:00,
2013-05-04 10:35:00,37.2,34.5,30.23,NNE,28,5.0,10.0,90,0.00,,,0.01,72.0,meteohub,2013-05-04 15:35:00,
2013-05-04 10:40:00,37.2,34.5,30.22,NNE,29,4.0,10.0,90,0.00,,,0.01,113.0,meteohub,2013-05-04 15:40:00,
2013-05-04 10:45:00,37.4,34.7,30.22,WNW,294,7.0,8.0,90,0.00,,,0.01,98.0,meteohub,2013-05-04 15:45:00,
2013-05-04 10:50:00,37.6,34.9,30.22,NE,34,3.0,8.0,90,0.00,,,0.01,107.0,meteohub,2013-05-04 15:50:00,
2013-05-04 10:55:00,37.8,35.1,30.22,WNW,302,2.0,8.0,90,0.00,,,0.01,102.0,meteohub,2013-05-04 15:55:00,
2013-05-04 11:00:00,37.8,34.9,30.22,NW,313,0.0,8.0,89,0.00,,,0.01,107.0,meteohub,2013-05-04 16:00:00,
2013-05-04 11:05:00,37.8,34.9,30.22,NE,52,3.0,10.0,89,0.00,,,0.01,127.0,meteohub,2013-05-04 16:05:00,
2013-05-04 11:10:00,37.9,35.1,30.22,NNE,24,4.0,10.0,89,0.00,,,0.01,102.0,meteohub,2013-05-04 16:10:00,
2013-05-04 11:15:00,37.9,35.1,30.22,ENE,61,1.0,10.0,89,0.00,,,0.01,86.0,meteohub,2013-05-04 16:15:00,
2013-05-04 11:20:00,38.1,35.2,30.23,NW,321,2.0,10.0,89,0.00,,,0.01,95.0,meteohub,2013-05-04 16:20:00,
2013-05-04 11:25:00,38.1,35.2,30.23,North,355,3.0,10.0,89,0.00,,,0.01,67.0,meteohub,2013-05-04 16:25:00,
2013-05-04 11:31:00,38.5,35.8,30.23,North,5,3.0,6.0,90,0.00,,,0.01,91.0,meteohub,2013-05-04 16:31:00,
2013-05-04 11:36:00,38.5,35.6,30.23,NNE,32,4.0,9.0,89,0.00,,,0.01,90.0,meteohub,2013-05-04 16:36:00,
2013-05-04 11:41:00,38.7,35.4,30.23,NNW,340,6.0,9.0,88,0.00,,,0.01,104.0,meteohub,2013-05-04 16:41:00,
2013-05-04 11:46:00,38.5,34.9,30.23,NNE,26,3.0,9.0,87,0.00,,,0.01,121.0,meteohub,2013-05-04 16:46:00,
2013-05-04 11:51:00,38.7,35.1,30.23,NNE,24,4.0,9.0,87,0.00,,,0.01,128.0,meteohub,2013-05-04 16:51:00,
2013-05-04 11:56:00,38.7,35.1,30.23,NNE,32,2.0,9.0,87,0.00,,,0.01,104.0,meteohub,2013-05-04 16:56:00,
2013-05-04 12:01:00,38.7,35.1,30.23,NE,34,3.0,9.0,87,0.00,,,0.01,105.0,meteohub,2013-05-04 17:01:00,
2013-05-04 12:06:00,38.7,35.1,30.23,NNE,27,3.0,9.0,87,0.00,,,0.01,102.0,meteohub,2013-05-04 17:06:00,
2013-05-04 12:11:00,38.7,35.4,30.22,NE,47,5.0,8.0,88,0.00,,,0.01,111.0,meteohub,2013-05-04 17:11:00,
2013-05-04 12:16:00,38.8,35.6,30.22,NW,324,4.0,8.0,88,0.00,,,0.01,118.0,meteohub,2013-05-04 17:16:00,
2013-05-04 12:21:00,38.8,35.2,30.22,NNW,342,2.0,8.0,87,0.00,,,0.01,111.0,meteohub,2013-05-04 17:21:00,
2013-05-04 12:26:00,38.8,35.2,30.22,West,278,4.0,8.0,87,0.00,,,0.01,116.0,meteohub,2013-05-04 17:26:00,
2013-05-04 12:31:00,38.8,35.2,30.22,WNW,302,4.0,9.0,87,0.00,,,0.01,128.0,meteohub,2013-05-04 17:31:00,
2013-05-04 12:36:00,39.2,35.6,30.22,North,355,4.0,9.0,87,0.00,,,0.01,148.0,meteohub,2013-05-04 17:36:00,
2013-05-04 12:41:00,39.4,35.8,30.22,NNE,16,4.0,8.0,87,0.00,,,0.01,155.0,meteohub,2013-05-04 17:41:00,
2013-05-04 12:46:00,39.6,35.8,30.22,NNE,19,3.0,8.0,86,0.00,,,0.01,146.0,meteohub,2013-05-04 17:46:00,
2013-05-04 12:51:00,39.6,35.8,30.22,North,350,1.0,9.0,86,0.00,,,0.01,123.0,meteohub,2013-05-04 17:51:00,
2013-05-04 12:56:00,39.7,36.1,30.22,North,0,3.0,9.0,87,0.00,,,0.01,144.0,meteohub,2013-05-04 17:56:00,
2013-05-04 13:01:00,39.9,36.1,30.23,North,0,4.0,9.0,86,0.00,,,0.01,127.0,meteohub,2013-05-04 18:01:00,
2013-05-04 13:06:00,39.9,36.1,30.23,NNW,338,1.0,6.0,86,0.00,,,0.01,123.0,meteohub,2013-05-04 18:06:00,
2013-05-04 13:11:00,39.9,36.1,30.23,NE,48,8.0,8.0,86,0.00,,,0.01,130.0,meteohub,2013-05-04 18:11:00,
2013-05-04 13:16:00,39.9,35.8,30.23,NNE,18,3.0,10.0,85,0.00,,,0.01,139.0,meteohub,2013-05-04 18:16:00,
2013-05-04 13:21:00,39.9,36.1,30.23,NNW,338,5.0,10.0,86,0.00,,,0.01,128.0,meteohub,2013-05-04 18:21:00,
2013-05-04 13:26:00,39.9,36.1,30.23,NW,311,0.0,10.0,86,0.00,,,0.01,116.0,meteohub,2013-05-04 18:26:00,
2013-05-04 13:31:00,40.1,36.5,30.23,ENE,67,4.0,9.0,87,0.00,,,0.01,105.0,meteohub,2013-05-04 18:31:00,
2013-05-04 13:36:00,39.9,35.8,30.23,NNW,340,3.0,9.0,85,0.00,,,0.01,111.0,meteohub,2013-05-04 18:36:00,
2013-05-04 13:41:00,40.1,36.0,30.23,NNE,17,2.0,7.0,85,0.00,,,0.01,111.0,meteohub,2013-05-04 18:41:00,
2013-05-04 13:46:00,40.3,36.1,30.23,North,355,3.0,10.0,85,0.00,,,0.01,116.0,meteohub,2013-05-04 18:46:00,
2013-05-04 13:51:00,40.3,35.8,30.23,NNE,27,6.0,10.0,84,0.00,,,0.01,91.0,meteohub,2013-05-04 18:51:00,
2013-05-04 13:56:00,40.3,35.8,30.23,NNE,26,0.0,10.0,84,0.00,,,0.01,91.0,meteohub,2013-05-04 18:56:00,
2013-05-04 14:01:00,40.3,35.8,30.23,NE,49,4.0,9.0,84,0.00,,,0.01,83.0,meteohub,2013-05-04 19:01:00,
2013-05-04 14:06:00,40.5,36.3,30.23,West,259,1.0,9.0,85,0.00,,,0.01,76.0,meteohub,2013-05-04 19:06:00,
2013-05-04 14:11:00,40.5,36.0,30.23,NE,51,8.0,8.0,84,0.00,,,0.01,74.0,meteohub,2013-05-04 19:11:00,
2013-05-04 14:17:00,40.3,36.1,30.22,NNE,30,4.0,13.0,85,0.00,,,0.01,76.0,meteohub,2013-05-04 19:17:00,
2013-05-04 14:22:00,40.3,36.5,30.23,ENE,67,3.0,13.0,86,0.00,,,0.01,79.0,meteohub,2013-05-04 19:22:00,
2013-05-04 14:27:00,40.3,36.1,30.23,NNW,348,6.0,13.0,85,0.00,,,0.01,74.0,meteohub,2013-05-04 19:27:00,
2013-05-04 14:32:00,40.1,36.3,30.23,NNE,32,5.0,7.0,86,0.00,,,0.01,83.0,meteohub,2013-05-04 19:32:00,
2013-05-04 14:37:00,39.9,36.1,30.22,NNE,33,4.0,7.0,86,0.00,,,0.01,77.0,meteohub,2013-05-04 19:37:00,
2013-05-04 14:42:00,39.9,36.1,30.22,NNE,18,9.0,9.0,86,0.00,,,0.01,72.0,meteohub,2013-05-04 19:42:00,
2013-05-04 14:47:00,39.9,36.3,30.22,NE,37,2.0,9.0,87,0.00,,,0.01,76.0,meteohub,2013-05-04 19:47:00,
2013-05-04 14:52:00,39.9,36.3,30.22,North,11,3.0,9.0,87,0.00,,,0.01,74.0,meteohub,2013-05-04 19:52:00,
2013-05-04 14:57:00,40.1,36.5,30.23,NNE,19,3.0,9.0,87,0.00,,,0.01,76.0,meteohub,2013-05-04 19:57:00,
2013-05-04 15:02:00,40.1,36.9,30.23,North,9,3.0,7.0,88,0.00,,,0.01,77.0,meteohub,2013-05-04 20:02:00,
2013-05-04 15:07:00,39.9,36.7,30.23,North,355,3.0,8.0,88,0.00,,,0.01,60.0,meteohub,2013-05-04 20:07:00,
2013-05-04 15:12:00,39.9,36.9,30.23,NW,325,1.0,8.0,89,0.00,,,0.01,63.0,meteohub,2013-05-04 20:12:00,
2013-05-04 15:17:00,39.7,36.7,30.23,NE,52,2.0,8.0,89,0.00,,,0.01,76.0,meteohub,2013-05-04 20:17:00,
2013-05-04 15:22:00,39.7,37.0,30.23,NNW,347,3.0,6.0,90,0.00,,,0.01,67.0,meteohub,2013-05-04 20:22:00,
2013-05-04 15:27:00,39.7,37.4,30.23,NNE,27,2.0,6.0,91,0.00,,,0.01,79.0,meteohub,2013-05-04 20:27:00,
2013-05-04 15:32:00,39.6,37.2,30.23,North,355,2.0,4.0,91,0.01,,,0.02,86.0,meteohub,2013-05-04 20:32:00,
2013-05-04 15:37:00,39.6,37.2,30.23,NNE,15,1.0,4.0,91,0.01,,,0.02,104.0,meteohub,2013-05-04 20:37:00,
2013-05-04 15:42:00,39.6,37.4,30.23,NNE,30,2.0,4.0,92,0.01,,,0.02,83.0,meteohub,2013-05-04 20:42:00,
2013-05-04 15:47:00,39.7,37.9,30.23,NE,40,0.0,5.0,93,0.02,,,0.03,81.0,meteohub,2013-05-04 20:47:00,
2013-05-04 15:52:00,39.9,38.1,30.23,NE,40,0.0,5.0,93,0.02,,,0.03,111.0,meteohub,2013-05-04 20:52:00,
2013-05-04 15:57:00,39.9,38.1,30.22,NNE,32,2.0,5.0,93,0.02,,,0.03,135.0,meteohub,2013-05-04 20:57:00,
2013-05-04 16:02:00,39.7,37.9,30.23,North,9,1.0,5.0,93,0.02,,,0.03,123.0,meteohub,2013-05-04 21:02:00,
2013-05-04 16:07:00,39.7,37.9,30.22,North,355,2.0,7.0,93,0.03,,,0.04,113.0,meteohub,2013-05-04 21:07:00,
2013-05-04 16:12:00,39.7,37.9,30.22,North,0,3.0,10.0,93,0.03,,,0.04,86.0,meteohub,2013-05-04 21:12:00,
2013-05-04 16:17:00,39.6,37.8,30.22,NNW,342,1.0,10.0,93,0.03,,,0.04,90.0,meteohub,2013-05-04 21:17:00,
2013-05-04 16:22:00,39.6,37.9,30.22,North,11,1.0,10.0,94,0.04,,,0.05,88.0,meteohub,2013-05-04 21:22:00,
2013-05-04 16:27:00,39.7,38.1,30.22,North,0,5.0,7.0,94,0.03,,,0.05,76.0,meteohub,2013-05-04 21:27:00,
2013-05-04 16:32:00,39.7,38.1,30.22,NNW,338,2.0,6.0,94,0.03,,,0.05,88.0,meteohub,2013-05-04 21:32:00,
2013-05-04 16:37:00,39.7,38.1,30.23,NNE,26,2.0,6.0,94,0.03,,,0.05,69.0,meteohub,2013-05-04 21:37:00,
2013-05-04 16:42:00,39.7,38.1,30.23,NE,39,1.0,6.0,94,0.03,,,0.05,72.0,meteohub,2013-05-04 21:42:00,
2013-05-04 16:47:00,39.7,38.1,30.23,NNW,344,3.0,6.0,94,0.02,,,0.05,62.0,meteohub,2013-05-04 21:47:00,
2013-05-04 16:52:00,39.7,38.1,30.23,NNE,13,2.0,7.0,94,0.02,,,0.05,77.0,meteohub,2013-05-04 21:52:00,
2013-05-04 16:57:00,39.7,38.1,30.23,NNE,28,1.0,7.0,94,0.02,,,0.05,63.0,meteohub,2013-05-04 21:57:00,
2013-05-04 17:02:00,39.6,37.9,30.23,North,5,0.0,7.0,94,0.02,,,0.05,63.0,meteohub,2013-05-04 22:02:00,
2013-05-04 17:07:00,39.7,38.1,30.23,NNE,17,0.0,7.0,94,0.01,,,0.05,65.0,meteohub,2013-05-04 22:07:00,
2013-05-04 17:12:00,39.6,37.9,30.23,North,9,3.0,7.0,94,0.01,,,0.05,49.0,meteohub,2013-05-04 22:12:00,
2013-05-04 17:17:00,39.6,37.9,30.23,ENE,63,0.0,7.0,94,0.00,,,0.05,65.0,meteohub,2013-05-04 22:17:00,
2013-05-04 17:22:00,39.6,37.9,30.23,North,351,2.0,6.0,94,0.00,,,0.05,56.0,meteohub,2013-05-04 22:22:00,
2013-05-04 17:27:00,39.7,38.1,30.23,NNE,26,5.0,6.0,94,0.00,,,0.05,60.0,meteohub,2013-05-04 22:27:00,
2013-05-04 17:32:00,39.6,37.9,30.23,NNE,16,0.0,6.0,94,0.00,,,0.05,44.0,meteohub,2013-05-04 22:32:00,
2013-05-04 17:37:00,39.7,38.1,30.23,NE,36,2.0,6.0,94,0.00,,,0.05,32.0,meteohub,2013-05-04 22:37:00,
2013-05-04 17:42:00,39.7,38.1,30.23,NNE,17,2.0,6.0,94,0.00,,,0.05,42.0,meteohub,2013-05-04 22:42:00,
2013-05-04 17:47:00,39.6,37.9,30.23,WNW,284,3.0,5.0,94,0.00,,,0.05,42.0,meteohub,2013-05-04 22:47:00,
2013-05-04 17:52:00,39.6,37.9,30.23,NW,306,0.0,4.0,94,0.00,,,0.05,33.0,meteohub,2013-05-04 22:52:00,
2013-05-04 17:57:00,39.7,38.1,30.23,WNW,286,2.0,4.0,94,0.00,,,0.05,32.0,meteohub,2013-05-04 22:57:00,
2013-05-04 18:02:00,39.7,38.1,30.23,NE,36,2.0,4.0,94,0.00,,,0.05,46.0,meteohub,2013-05-04 23:02:00,
2013-05-04 18:07:00,39.7,38.1,30.23,NNE,23,2.0,5.0,94,0.00,,,0.05,37.0,meteohub,2013-05-04 23:07:00,
2013-05-04 18:12:00,39.7,38.1,30.23,NNW,342,6.0,6.0,94,0.00,,,0.05,37.0,meteohub,2013-05-04 23:12:00,
2013-05-04 18:17:00,39.6,37.9,30.23,North,351,1.0,6.0,94,0.00,,,0.05,37.0,meteohub,2013-05-04 23:17:00,
2013-05-04 18:22:00,39.6,37.9,30.23,NNE,24,1.0,6.0,94,0.00,,,0.05,39.0,meteohub,2013-05-04 23:22:00,
2013-05-04 18:27:00,39.6,37.9,30.23,North,355,4.0,6.0,94,0.00,,,0.05,32.0,meteohub,2013-05-04 23:27:00,
2013-05-04 18:32:00,39.4,37.8,30.23,NW,317,1.0,5.0,94,0.00,,,0.05,26.0,meteohub,2013-05-04 23:32:00,
2013-05-04 18:37:00,39.6,37.9,30.23,NE,54,1.0,5.0,94,0.00,,,0.05,19.0,meteohub,2013-05-04 23:37:00,
2013-05-04 18:42:00,39.6,37.9,30.23,NNE,17,2.0,6.0,94,0.00,,,0.05,26.0,meteohub,2013-05-04 23:42:00,
2013-05-04 18:47:00,39.6,37.9,30.23,NNE,28,2.0,6.0,94,0.00,,,0.05,28.0,meteohub,2013-05-04 23:47:00,
2013-05-04 18:52:00,39.6,37.9,30.24,NNE,25,2.0,8.0,94,0.00,,,0.05,25.0,meteohub,2013-05-04 23:52:00,
2013-05-04 18:57:00,39.6,37.9,30.24,NE,49,4.0,8.0,94,0.00,,,0.05,26.0,meteohub,2013-05-04 23:57:00,
2013-05-04 19:02:00,39.6,37.9,30.24,NNW,336,1.0,8.0,94,0.00,,,0.05,26.0,meteohub,2013-05-05 00:02:00,
2013-05-04 19:07:00,39.6,37.9,30.24,North,351,2.0,5.0,94,0.00,,,0.05,19.0,meteohub,2013-05-05 00:07:00,
2013-05-04 19:12:00,39.4,37.8,30.24,North,0,0.0,4.0,94,0.00,,,0.05,19.0,meteohub,2013-05-05 00:12:00,
2013-05-04 19:17:00,39.6,37.9,30.24,WNW,296,2.0,4.0,94,0.00,,,0.05,21.0,meteohub,2013-05-05 00:17:00,
2013-05-04 19:21:00,39.4,37.8,30.24,NNE,22,3.0,7.0,94,0.00,,,0.05,19.0,meteohub,2013-05-05 00:21:00,
2013-05-04 19:26:00,39.4,37.8,30.24,NNE,15,1.0,7.0,94,0.00,,,0.05,19.0,meteohub,2013-05-05 00:26:00,
2013-05-04 19:31:00,39.4,37.8,30.24,NE,38,3.0,7.0,94,0.00,,,0.05,16.0,meteohub,2013-05-05 00:31:00,
2013-05-04 19:36:00,39.4,37.8,30.24,North,350,3.0,5.0,94,0.00,,,0.05,16.0,meteohub,2013-05-05 00:36:00,
2013-05-04 19:41:00,39.4,37.8,30.24,North,5,2.0,5.0,94,0.00,,,0.05,12.0,meteohub,2013-05-05 00:41:00,
2013-05-04 19:47:00,39.4,37.8,30.24,NNE,18,1.0,5.0,94,0.00,,,0.05,11.0,meteohub,2013-05-05 00:47:00,
2013-05-04 19:52:00,39.4,37.8,30.24,NW,324,0.0,5.0,94,0.00,,,0.05,9.0,meteohub,2013-05-05 00:52:00,
2013-05-04 19:57:00,39.4,38.1,30.25,NNE,26,0.0,4.0,95,0.00,,,0.05,7.0,meteohub,2013-05-05 00:57:00,
2013-05-04 20:02:00,39.4,38.1,30.25,NW,324,3.0,3.0,95,0.00,,,0.05,5.0,meteohub,2013-05-05 01:02:00,
2013-05-04 20:07:00,39.2,37.9,30.25,NE,40,0.0,5.0,95,0.00,,,0.05,5.0,meteohub,2013-05-05 01:07:00,
2013-05-04 20:12:00,39.4,38.1,30.25,NE,40,1.0,5.0,95,0.00,,,0.05,0.0,meteohub,2013-05-05 01:12:00,
2013-05-04 20:17:00,39.2,37.9,30.25,North,0,0.0,5.0,95,0.00,,,0.05,0.0,meteohub,2013-05-05 01:17:00,
2013-05-04 20:22:00,39.2,37.9,30.25,North,0,1.0,3.0,95,0.00,,,0.05,0.0,meteohub,2013-05-05 01:22:00,
2013-05-04 20:27:00,39.2,37.9,30.25,North,0,0.0,3.0,95,0.00,,,0.05,0.0,meteohub,2013-05-05 01:27:00,
2013-05-04 20:32:00,39.2,37.9,30.25,NNE,15,0.0,3.0,95,0.00,,,0.05,0.0,meteohub,2013-05-05 01:32:00,
2013-05-04 20:37:00,39.2,37.9,30.25,NNE,17,1.0,3.0,95,0.00,,,0.05,0.0,meteohub,2013-05-05 01:37:00,
2013-05-04 20:42:00,39.2,37.9,30.25,North,5,0.0,3.0,95,0.00,,,0.05,0.0,meteohub,2013-05-05 01:42:00,
2013-05-04 20:47:00,39.2,37.9,30.25,NNE,13,2.0,3.0,95,0.00,,,0.05,0.0,meteohub,2013-05-05 01:47:00,
2013-05-04 20:52:00,39.2,37.9,30.25,NW,312,1.0,3.0,95,0.00,,,0.05,0.0,meteohub,2013-05-05 01:52:00,
2013-05-04 20:57:00,39.0,37.8,30.25,NW,321,0.0,5.0,95,0.00,,,0.05,0.0,meteohub,2013-05-05 01:57:00,
2013-05-04 21:02:00,39.2,37.9,30.25,NW,316,1.0,5.0,95,0.00,,,0.05,0.0,meteohub,2013-05-05 02:02:00,
2013-05-04 21:07:00,39.2,37.9,30.25,NW,313,1.0,5.0,95,0.00,,,0.05,0.0,meteohub,2013-05-05 02:07:00,
2013-05-04 21:12:00,39.0,37.8,30.25,NW,312,0.0,5.0,95,0.00,,,0.05,0.0,meteohub,2013-05-05 02:12:00,
2013-05-04 21:17:00,39.0,37.8,30.25,WNW,301,0.0,5.0,95,0.00,,,0.05,0.0,meteohub,2013-05-05 02:17:00,
2013-05-04 21:22:00,39.0,37.8,30.25,NW,311,0.0,5.0,95,0.00,,,0.05,0.0,meteohub,2013-05-05 02:22:00,
2013-05-04 21:27:00,39.0,37.8,30.25,NNW,345,0.0,5.0,95,0.00,,,0.05,0.0,meteohub,2013-05-05 02:27:00,
2013-05-04 21:32:00,39.0,37.8,30.25,NNW,345,0.0,5.0,95,0.00,,,0.05,0.0,meteohub,2013-05-05 02:32:00,
2013-05-04 21:37:00,39.0,37.8,30.25,NNE,13,0.0,5.0,95,0.00,,,0.05,0.0,meteohub,2013-05-05 02:37:00,
2013-05-04 21:42:00,39.0,37.8,30.26,NW,323,0.0,3.0,95,0.00,,,0.05,0.0,meteohub,2013-05-05 02:42:00,
2013-05-04 21:47:00,39.0,37.8,30.26,NE,40,1.0,3.0,95,0.00,,,0.05,0.0,meteohub,2013-05-05 02:47:00,
2013-05-04 21:52:00,39.0,37.8,30.26,NE,40,0.0,3.0,95,0.00,,,0.05,0.0,meteohub,2013-05-05 02:52:00,
2013-05-04 21:57:00,39.0,37.8,30.26,NNW,342,0.0,2.0,95,0.00,,,0.05,0.0,meteohub,2013-05-05 02:57:00,
2013-05-04 22:02:00,39.0,37.8,30.26,NW,315,0.0,2.0,95,0.00,,,0.05,0.0,meteohub,2013-05-05 03:02:00,
2013-05-04 22:07:00,39.0,37.8,30.26,West,262,0.0,2.0,95,0.00,,,0.05,0.0,meteohub,2013-05-05 03:07:00,
2013-05-04 22:12:00,39.0,37.8,30.26,NNW,348,0.0,2.0,95,0.00,,,0.05,0.0,meteohub,2013-05-05 03:12:00,
2013-05-04 22:17:00,39.0,37.8,30.26,WNW,298,0.0,2.0,95,0.00,,,0.05,0.0,meteohub,2013-05-05 03:17:00,
2013-05-04 22:22:00,39.0,37.8,30.26,WNW,298,0.0,2.0,95,0.00,,,0.05,0.0,meteohub,2013-05-05 03:22:00,
2013-05-04 22:27:00,39.0,37.8,30.26,North,5,0.0,3.0,95,0.00,,,0.05,0.0,meteohub,2013-05-05 03:27:00,
2013-05-04 22:32:00,38.8,37.8,30.26,North,5,0.0,3.0,96,0.00,,,0.05,0.0,meteohub,2013-05-05 03:32:00,
2013-05-04 22:37:00,38.8,37.8,30.26,WNW,296,1.0,3.0,96,0.00,,,0.05,0.0,meteohub,2013-05-05 03:37:00,
2013-05-04 22:42:00,38.8,37.8,30.26,NW,317,0.0,3.0,96,0.00,,,0.05,0.0,meteohub,2013-05-05 03:42:00,
2013-05-04 22:47:00,38.8,37.8,30.26,NW,317,0.0,3.0,96,0.00,,,0.05,0.0,meteohub,2013-05-05 03:47:00,
2013-05-04 22:52:00,38.8,37.8,30.26,NW,322,2.0,3.0,96,0.00,,,0.05,0.0,meteohub,2013-05-05 03:52:00,
2013-05-04 22:57:00,38.8,37.8,30.26,North,355,0.0,2.0,96,0.00,,,0.05,0.0,meteohub,2013-05-05 03:57:00,
2013-05-04 23:01:00,38.8,37.8,30.25,North,355,0.0,2.0,96,0.00,,,0.05,0.0,meteohub,2013-05-05 04:01:00,
2013-05-04 23:02:00,38.8,37.8,30.25,North,355,0.0,2.0,96,0.00,,,0.05,0.0,meteohub,2013-05-05 04:02:00,
2013-05-04 23:07:00,38.8,37.8,30.25,North,350,0.0,2.0,96,0.00,,,0.05,0.0,meteohub,2013-05-05 04:07:00,
2013-05-04 23:12:00,38.8,37.8,30.25,North,350,0.0,2.0,96,0.00,,,0.05,0.0,meteohub,2013-05-05 04:12:00,
2013-05-04 23:17:00,38.8,37.8,30.25,North,350,0.0,1.0,96,0.00,,,0.05,0.0,meteohub,2013-05-05 04:17:00,
2013-05-04 23:22:00,38.8,37.8,30.25,NW,325,0.0,3.0,96,0.00,,,0.05,0.0,meteohub,2013-05-05 04:22:00,
2013-05-04 23:27:00,38.8,37.8,30.25,NNW,338,0.0,3.0,96,0.00,,,0.05,0.0,meteohub,2013-05-05 04:27:00,
2013-05-04 23:32:00,38.8,37.8,30.25,NNW,338,0.0,3.0,96,0.00,,,0.05,0.0,meteohub,2013-05-05 04:32:00,
2013-05-04 23:37:00,38.8,37.8,30.25,NNW,338,0.0,2.0,96,0.00,,,0.05,0.0,meteohub,2013-05-05 04:37:00,
2013-05-04 23:42:00,38.8,37.8,30.25,NW,323,0.0,2.0,96,0.00,,,0.05,0.0,meteohub,2013-05-05 04:42:00,
2013-05-04 23:47:00,38.8,37.8,30.25,NNW,344,0.0,2.0,96,0.00,,,0.05,0.0,meteohub,2013-05-05 04:47:00,
2013-05-04 23:52:00,38.8,37.8,30.25,North,351,2.0,2.0,96,0.00,,,0.05,0.0,meteohub,2013-05-05 04:52:00,
2013-05-04 23:57:00,38.8,37.8,30.25,WNW,297,0.0,4.0,96,0.00,,,0.05,0.0,meteohub,2013-05-05 04:57:00,